Date String (YYYY-MM-DD hh:mm:ss) UTC,Instrument flags,Ambient pressure (hPa),Sample flow (lpm),Bypass flow (lpm),Sample temperature (°C),Ambient temperature (°C),ASC tube jacket temperature (°C),LED temperature (°C),Box temperature (°C),Sample RH (%),Span deviation,Mass concentration (μg/m³),Mass concentration (μg/m³),Mass concentration (μg/m³)
DateTimeUTC,F1_M11,P_M11,Q1_M11,Q2_M11,T1_M11,T2_M11,T3_M11,T4_M11,T5_M11,U1_M11,ZSPAN_M11,X0_M11,X2_M11,X1_M11
2021-09-23 19:00:00,,0828.7,5.00,0.00,29.8,28.7,00.0,38.6,31.6,11.1,-001.1,0011.56,0004.82,0004.27
2021-09-23 19:01:00,,0828.5,5.01,0.00,29.7,27.0,00.0,38.6,31.2,11.2,-001.0,0011.48,0004.90,0004.31
2021-09-23 19:02:00,,0828.5,4.99,0.00,29.5,25.9,00.0,38.6,30.9,11.5,-001.5,0011.63,0004.95,0004.32
2021-09-23 19:03:00,,0828.5,5.00,0.00,29.4,26.3,00.0,38.6,30.9,11.3,-001.4,0011.74,0005.04,0004.37
2021-09-23 19:04:00,,0828.5,5.00,0.00,29.4,26.7,00.0,38.6,31.0,11.2,-001.1,0011.66,0005.09,0004.39
2021-09-23 19:05:00,,0828.5,5.00,0.00,29.4,27.1,00.0,38.5,31.1,11.2,-001.1,0011.78,0005.15,0004.43
2021-09-23 19:06:00,,0828.5,5.01,0.00,29.4,27.6,00.0,38.5,31.2,11.4,-000.8,0011.47,0005.16,0004.45
2021-09-23 19:07:00,,0828.5,4.99,0.00,29.5,27.9,00.0,38.5,31.3,11.5,-000.6,0011.98,0005.27,0004.48
2021-09-23 19:08:00,,0828.5,5.01,0.00,29.5,28.2,00.0,38.5,31.4,11.4,0000.6,0013.20,0005.33,0004.54
2021-09-23 19:09:00,,0828.5,4.99,0.00,29.6,28.4,00.0,38.5,31.4,11.2,0000.9,0014.24,0005.37,0004.56
2021-09-23 19:10:00,,0828.6,5.00,0.00,29.6,28.6,00.0,38.6,31.5,11.0,0000.7,0016.28,0005.43,0004.57
2021-09-23 19:11:00,,0828.4,5.00,0.00,29.7,28.8,00.0,38.6,31.6,11.0,0001.2,0016.71,0005.48,0004.58
2021-09-23 19:12:00,,0828.5,5.00,0.00,29.7,28.3,00.0,38.6,31.4,11.0,0001.6,0017.87,0005.45,0004.56
2021-09-23 19:13:00,,0828.4,5.01,0.00,29.6,26.4,00.0,38.6,30.9,11.2,0002.1,0018.00,0005.43,0004.55
2021-09-23 19:14:00,,0828.4,5.00,0.00,29.4,25.9,00.0,38.6,30.8,10.8,0001.8,0018.30,0005.35,0004.50
2021-09-23 19:15:00,,0828.4,4.99,0.00,29.4,26.3,00.0,38.5,30.9,10.7,0001.3,0017.81,0005.29,0004.45
2021-09-23 19:16:00,,0828.4,5.00,0.00,29.3,26.7,00.0,38.5,31.0,10.9,0001.2,0017.56,0005.19,0004.39
2021-09-23 19:17:00,,0828.4,5.01,0.00,29.3,27.2,00.0,38.5,31.0,10.8,0001.5,0017.78,0005.11,0004.33
2021-09-23 19:18:00,,0828.4,5.00,0.00,29.4,27.5,00.0,38.5,31.1,10.8,0001.2,0017.67,0005.01,0004.28
2021-09-23 19:19:00,,0828.4,5.00,0.00,29.4,27.9,00.0,38.5,31.2,10.9,0000.7,0017.25,0004.95,0004.22
2021-09-23 19:20:00,,0828.4,4.99,0.00,29.5,28.1,00.0,38.5,31.3,10.9,0000.6,0016.38,0004.92,0004.17
2021-09-23 19:21:00,,0828.3,5.01,0.00,29.5,28.4,00.0,38.5,31.4,10.8,0000.6,0014.11,0004.84,0004.15
2021-09-23 19:22:00,,0828.3,5.00,0.00,29.5,28.6,00.0,38.5,31.4,11.1,0000.4,0013.46,0004.81,0004.14
2021-09-23 19:23:00,,0828.3,5.01,0.00,29.6,28.7,00.0,38.5,31.5,11.1,-000.4,0012.07,0004.81,0004.13
2021-09-23 19:24:00,,0828.3,5.00,0.00,29.7,28.9,00.0,38.6,31.6,11.3,-000.5,0012.10,0004.79,0004.13
2021-09-23 19:25:00,,0828.3,5.00,0.00,29.7,28.0,00.0,38.6,31.3,11.2,-000.1,0012.83,0004.79,0004.13
2021-09-23 19:26:00,,0828.3,5.00,0.00,29.5,26.1,00.0,38.6,30.7,11.4,-000.9,0013.02,0004.83,0004.15
2021-09-23 19:27:00,,0828.3,5.00,0.00,29.4,25.9,00.0,38.5,30.7,10.7,-001.3,0013.30,0004.89,0004.17
2021-09-23 19:28:00,,0828.3,4.99,0.00,29.3,26.3,00.0,38.5,30.8,11.4,-002.1,0013.50,0004.95,0004.20
2021-09-23 19:29:00,,0828.3,5.00,0.00,29.3,26.7,00.0,38.5,30.9,11.5,-002.3,0013.14,0004.97,0004.24
2021-09-23 19:30:00,,0828.4,4.99,0.00,29.3,27.2,00.0,38.4,31.0,11.1,-002.4,0012.57,0004.96,0004.26
2021-09-23 19:31:00,,0828.3,5.01,0.00,29.4,27.6,00.0,38.4,31.1,11.5,-001.8,0012.51,0004.95,0004.29
2021-09-23 19:32:00,,0828.3,4.99,0.00,29.4,27.9,00.0,38.4,31.2,10.9,-001.8,0012.53,0005.03,0004.32
2021-09-23 19:33:00,,0828.2,4.99,0.00,29.5,28.2,00.0,38.5,31.3,10.5,-001.7,0012.61,0005.05,0004.33
2021-09-23 19:34:00,,0828.2,4.99,0.00,29.5,28.4,00.0,38.5,31.4,10.8,-000.9,0012.73,0005.00,0004.31
2021-09-23 19:35:00,,0828.2,4.99,0.00,29.6,28.6,00.0,38.5,31.5,10.9,-000.7,0013.73,0005.00,0004.30
2021-09-23 19:36:00,,0828.2,5.01,0.00,29.6,28.7,00.0,38.5,31.5,11.2,-000.4,0013.27,0005.02,0004.31
2021-09-23 19:37:00,,0828.2,5.00,0.00,29.6,27.4,00.0,38.5,31.2,11.4,0000.6,0013.85,0005.02,0004.33
2021-09-23 19:38:00,,0828.1,4.99,0.00,29.4,25.8,00.0,38.5,30.6,11.7,0001.3,0014.41,0005.06,0004.39
2021-09-23 19:39:00,,0828.1,5.01,0.00,29.3,25.9,00.0,38.5,30.7,11.8,0002.2,0014.56,0005.06,0004.43
2021-09-23 19:40:00,,0828.1,4.99,0.00,29.2,26.4,00.0,38.4,30.7,11.4,0003.4,0014.77,0005.08,0004.44
2021-09-23 19:41:00,,0828.1,5.01,0.00,29.2,26.8,00.0,38.4,30.9,11.7,0003.7,0015.08,0005.12,0004.45
2021-09-23 19:42:00,,0828.1,5.01,0.00,29.3,27.3,00.0,38.4,31.0,11.7,0003.7,0014.81,0005.14,0004.45
2021-09-23 19:43:00,,0828.1,5.00,0.00,29.3,27.7,00.0,38.4,31.1,11.7,0003.2,0016.06,0005.17,0004.47
2021-09-23 19:44:00,,0828.0,5.00,0.00,29.3,28.0,00.0,38.4,31.2,11.6,0003.0,0016.91,0005.25,0004.50
2021-09-23 19:45:00,,0828.1,5.00,0.00,29.4,28.2,00.0,38.4,31.3,11.5,0002.4,0017.31,0005.35,0004.56
2021-09-23 19:46:00,,0828.0,5.00,0.00,29.5,28.5,00.0,38.4,31.4,11.5,0002.4,0017.39,0005.34,0004.59
2021-09-23 19:47:00,,0828.0,5.00,0.00,29.5,28.6,00.0,38.4,31.4,11.3,0001.9,0017.80,0005.36,0004.60
2021-09-23 19:48:00,,0828.0,5.00,0.00,29.6,28.8,00.0,38.5,31.5,10.9,0000.9,0017.57,0005.37,0004.60
2021-09-23 19:49:00,,0828.0,5.00,0.00,29.6,28.7,00.0,38.5,31.5,10.9,0000.6,0016.87,0005.38,0004.58
2021-09-23 19:50:00,,0828.0,5.00,0.00,29.6,27.0,00.0,38.5,31.1,10.6,0001.3,0016.54,0005.39,0004.57
2021-09-23 19:51:00,,0827.9,5.00,0.00,29.4,25.7,00.0,38.5,30.7,10.8,-000.2,0016.28,0005.37,0004.55
2021-09-23 19:52:00,,0827.9,5.00,0.00,29.3,26.0,00.0,38.4,30.8,11.0,-000.9,0015.82,0005.38,0004.55
2021-09-23 19:53:00,,0828.0,5.00,0.00,29.3,26.5,00.0,38.4,30.9,11.1,-001.5,0016.04,0005.39,0004.55
2021-09-23 19:54:00,,0827.9,5.01,0.00,29.3,26.9,00.0,38.4,31.0,11.3,-001.5,0014.70,0005.31,0004.54
2021-09-23 19:55:00,,0827.9,5.00,0.00,29.3,27.4,00.0,38.4,31.1,11.2,-001.4,0014.10,0005.27,0004.53
2021-09-23 19:56:00,,0827.9,5.01,0.00,29.3,27.7,00.0,38.4,31.1,11.3,-001.4,0014.53,0005.28,0004.53
2021-09-23 19:57:00,,0827.9,5.00,0.00,29.4,28.1,00.0,38.4,31.2,11.4,-001.6,0013.76,0005.35,0004.54
2021-09-23 19:58:00,,0827.9,4.99,0.00,29.4,28.3,00.0,38.4,31.3,11.5,-001.3,0014.14,0005.42,0004.56
2021-09-23 19:59:00,,0827.8,5.01,0.00,29.5,28.5,00.0,38.4,31.4,11.8,-000.2,0014.49,0005.53,0004.59
